Powrót do katalogu

SPOT 1

AktywnyNaukaPO
NORAD 16613·PAYLOAD·🇫🇷 France

Wystrzelony Feb 22, 1986 z Guiana Space Centre

Loading…

Następne Przeloty (najbliższe 24 godziny)

TLE

ŚwieżeSource: Space-Track

Epoka: Sep 14, 2026, 14:10 UTC

1 16613U 86019A   26257.59056896  .00001252  00000-0  18621-3 0  9992
2 16613  98.6661 196.5301 0127947 345.4660  14.2879 14.71673450824146

Śledź SPOT 1 w czasie rzeczywistym z AllMySat

Download on the App Store